Find Starlink 30043

NORAD ID: 57417 Int'l Des: 2023-102 Owner: SPXS Country: US Constellation: starlink operational
LEOCIRCULAR

現在のビュー

3D地球を読み込み中...

About Starlink 30043

Starlink 30043 (NORAD 57417) is a starlink constellation satellite (v2 mini) launched Jul 19, 2023 by SPXS of US. It operates in LEO, CIRCULAR orbit with a mass of 730.00 kg.

Starlink 30043について

説明を読み込み中...

次回通過

Passes for default location (London). Set your location on the main map for personalized predictions.

高度履歴

Loading altitude history...

軌道要素

1 57417U 23102P 26169.02107240 -.00000337 00000-0 -27319-5 0 9994
2 57417 43.0040 42.0158 0001261 267.6397 92.4310 15.27573181161587
Epoch: Jun 18, 2026 • Age: 14 hours

現在のステータス

高度 482.7 km
速度 7.63 km/s
衛星直下点 18.25°N, 68.82°W
打ち上げ日 Jul 19, 2023
運用期間 2.9 years
タイプ internet

技術仕様

分類 Payload
質量 730.00 kg
乾燥質量 700.00 kg
総質量 730.00 kg
長さ 0.30 m
直径 4.10 m
スパン 29.00 m
形状 Box + pan
製造者 SPXS
バスタイプ Starlink V2M
フェーズステータス In Orbit
所有者/国 SPXS/US

Most Searched